This demonstration page uses our WeatherBlox Daily Observations layout. Learn more.

Left ArrowRight Arrow

36.17497, -115.13722

Hourly Observations for February 22, 2019

Temp ( °F °C ) Dew Point ( °F °C ) Humidity (%) Winds ( mph kmh ) Pressure ( in mb ) Visibility ( mi km ) Precip ( " mm )
12:53 am 00:53 Mostly Clear 37 2.8 27 -2.8 67 67 N 9 15 29.83 1010 10 16 0.00 0.00
1:53 am 01:53 Clear 36 2.2 25 -3.9 64 64 NNW 9 15 29.85 1011 10 16 0.00 0.00
2:53 am 02:53 Clear N/A N/A N/A NNW 12 19 N/A 10 16 0.00 0.00
3:53 am 03:53 Clear N/A N/A N/A N 10 17 N/A 10 16 0.00 0.00
4:53 am 04:53 Clear N/A N/A N/A NNW 15 24 N/A 10 16 0.00 0.00
5:53 am 05:53 Clear 37 2.8 19 -7.2 48 48 NNW 14 22 29.91 1013 10 16 0.00 0.00
6:53 am 06:53 Sunny N/A N/A N/A NNW 16 26 N/A 10 16 0.00 0.00
7:53 am 07:53 Sunny 37 2.8 17 -8.3 44 44 NNW 23 37 29.96 1015 10 16 0.00 0.00
8:53 am 08:53 Sunny 40 4.4 16 -8.9 38 38 NNW 26 43 29.97 1015 10 16 0.00 0.00
9:53 am 09:53 Sunny 42 5.6 16 -8.9 35 35 NNW 28 44 29.98 1015 10 16 0.00 0.00
10:53 am 10:53 Sunny 44 6.7 17 -8.3 34 34 NNW 18 30 29.99 1016 10 16 0.00 0.00
11:53 am 11:53 Sunny 46 7.8 17 -8.3 31 31 NNW 18 30 30.00 1016 10 16 0.00 0.00
12:53 pm 12:53 Sunny 47 8.3 15 -9.4 28 28 NNW 20 31 29.98 1015 10 16 0.00 0.00
1:53 pm 13:53 Sunny 48 8.9 16 -8.9 28 28 NNW 17 28 29.99 1016 10 16 0.00 0.00
2:53 pm 14:53 Sunny 49 9.4 16 -8.9 27 27 NNW 14 22 29.94 1014 10 16 0.00 0.00
3:53 pm 15:53 Sunny 49 9.4 14 -10 25 25 NNW 13 20 29.96 1015 10 16 0.00 0.00
4:53 pm 16:53 Sunny 48 8.9 12 -11.1 23 23 NNW 16 26 29.98 1015 10 16 0.00 0.00
5:53 pm 17:53 Clear 46 7.8 14 -10 27 27 NW 13 20 30.07 1018 10 16 0.00 0.00
6:53 pm 18:53 Clear 45 7.2 11 -11.7 25 25 NW 10 17 30.06 1018 10 16 0.00 0.00
7:53 pm 19:53 Clear 44 6.7 11 -11.7 26 26 NW 7 11 30.13 1020 10 16 0.00 0.00
8:53 pm 20:53 Clear 42 5.6 13 -10.6 30 30 NW 10 17 30.16 1021 10 16 0.00 0.00
9:53 pm 21:53 Clear 39 3.9 17 -8.3 41 41 E 5 7 30.19 1022 10 16 0.00 0.00
10:53 pm 22:53 Clear 38 3.3 18 -7.8 44 44 NNW 3 6 30.20 1023 10 16 0.00 0.00
11:53 pm 23:53 Clear 39 3.9 15 -9.4 38 38 N 9 15 30.22 1023 10 16 0.00 0.00

Powered by AerisWeather